Regional Weather Roundup
Issued by NWS Portland, ME

Home | Current Version | Previous Version | Text Only | Print | Product List | Glossary On
Versions: 1 2 3 4 5 6 7 8 9 10 11 12 13 14 15 16 17 18 19 20 21 22 23 24 25 26 27 28 29 30 31 32 33 34 35 36 37 38 39 40 41 42 43 44 45 46 47 48 49 50
000
ASUS41 KGYX 011510
RWRGYX
WEATHER ROUNDUP FOR MAINE AND NEW HAMPSHIRE
NATIONAL WEATHER SERVICE GRAY ME
1100 AM EDT TUE SEP 01 2015

MEZ002-005-006-010-012-015-018-020-021-024-026-027-029-011600-
MAINE

CITY           SKY/WX    TMP DP  RH WIND       PRES   REMARKS
PORTLAND       MOSUNNY   76  56  49 NE7       30.06R
SANFORD        SUNNY     75  57  53 NE5       30.07R
BAR HARBOR     SUNNY     70  52  52 N10G20    30.03R
WISCASSET      SUNNY     74  55  51 N7        30.06S
ROCKLAND       SUNNY     72  55  56 E5        30.03S
FRYEBURG       SUNNY     76  62  62 VRB3      30.07S
LEWISTONAUBURN SUNNY     75 N/A N/A N9        30.07S
AUGUSTA        MOSUNNY   71  55  56 N7        30.06F
WATERVILLE     MOSUNNY   72  54  53 N8        30.03S
BANGOR         MOSUNNY   71  53  52 N10       30.05S
GREENVILLE       N/A     64  51  62 NW6       30.06S
MILLINOCKET    SUNNY     70  47  43 N10       30.05F
HOULTON        MOSUNNY   65  47  52 N16       30.03S
PRESQUE ISLE   MOSUNNY   63  46  55 N8        30.04F
FRENCHVILLE    MOSUNNY   62  47  57 NW13      30.04F
CARIBOU        MOSUNNY   64  46  52 N12       30.03F
$$

NHZ002-005-008-009-011-012-014-011600-
NEW HAMPSHIRE

CITY           SKY/WX    TMP DP  RH WIND       PRES   REMARKS
PORTSMOUTH     MOSUNNY   77  60  54 SE9       30.04S
ROCHESTER      SUNNY     78  61  55 S5        30.06R
NASHUA         MOSUNNY   80  60  50 VRB5      30.06S
MANCHESTER     MOSUNNY   80  56  43 VRB3      30.04S
CONCORD        SUNNY     77  57  50 NW8       30.07R
LACONIA        SUNNY     75  57  53 SW6       30.05S
PLYMOUTH       FAIR      75  58  55 W3        30.06S
BERLIN         SUNNY     72  54  53 VRB5      30.09S
WHITEFIELD     SUNNY     71  56  58 W3        30.09F
JAFFREY        MOSUNNY   76  60  57 VRB3      30.10R
KEENE          SUNNY     75  61  60 S3        30.09S
LEBANON        SUNNY     73  62  68 CALM      30.08S
MT WASHINGTON  MOSUNNY   55  19  24 N22         N/A
$$

VTZ005-007-008-011600-
VERMONT

CITY           SKY/WX    TMP DP  RH WIND       PRES   REMARKS
ST JOHNSBURY     N/A     70  56  61 MISG      30.07F
MONTPELIER     SUNNY     70  60  70 CALM      30.14S
BURLINGTON     MOSUNNY   75  62  64 CALM      30.08S
$$

MAZ007-012-024-CTZ003-RIZ002-NYZ038-NYZ072-011600-
SOUTHERN NEW ENGLAND AND NY

CITY           SKY/WX    TMP DP  RH WIND       PRES   REMARKS
BOSTON         MOSUNNY   77  61  57 E12       30.06R
WORCESTER      MOSUNNY   76  56  49 E8        30.10R
NANTUCKET      SUNNY     80  64  58 NE10      30.04S
PROVIDENCE     MOSUNNY   80  61  52 E7        30.06R
HARTFORD       MOSUNNY   80  61  52 N7        30.06S
ALBANY         MOSUNNY   78  65  63 N5        30.08S
NEW YORK CITY  MOSUNNY   82  62  50 E13       30.06R
$$

ANZ081-ANZ082-ANZ150-NHZ014-MEZ023>029-011600-
COASTAL MARINE OBSERVATIONS

STATION/POSITION TIME  TEMP    WIND        PRES    WAVE
                       AIR SEA DIR/SP/G            HT/PER
                 (UTC) (F)     (DEG/KT/KT) (MB)    (FT/S)
MOUNT DESERT ROC 1500   62     290/  9/  9 1016.9S
MATINICUS ROCK   1500          360/  8/  8 1017.0R
ISLE OF SHOALS   1500   70      50/  6/  6 1017.4R
JEFFREYS LEDGE   1403      67                N/A     2/ 9
CASHES LEDGE BUO 1450   65                 1017.3R   2/ 7
GEORGES BANK BUO 1450   69 69   10/ 14/ 16 1015.2R   4/ 7
$$

.............KEY..............
   WCI - WIND CHILL
   TC  - TEMPERATURE IN CELSIUS
   VSB - VISIBILITY IN MILES
   HX  - HEAT INDEX
   FAIR- INDICATES FEW OR NO CLOUDS BELOW 12,000 FT, WITH NO
         SIGNIFICANT WEATHER AND/OR OBSTRUCTIONS TO VISIBILITY.





USA.gov is the U.S. government's official web portal to all federal, state and local government web resources and services.